Starlink 3641

operational
NORAD ID: 51788 Int'l Des: 2022-017 Owner: SPXS Country: US Constellation: starlink
LEOCIRCULAR

Starlink 3641について

説明を読み込み中...

リアルタイム位置

3D地球を読み込み中...

次回通過

高度履歴

Altitude vs Time

uPlot chart will show altitude changes over time

軌道要素

1 51788U 22017W 25304.74251119 -.00000573 00000-0 -17938-4 0 9994
2 51788 53.2169 207.9869 0001494 96.8091 263.3072 15.08835870204452
Epoch: Oct 31, 2025 • Age: 21 hours

現在のステータス

高度 542.7 km
速度 7.60 km/s
衛星直下点 40.47°N, 18.56°W
打ち上げ日 Feb 25, 2022
運用期間 3.6 years
タイプ internet

技術仕様

分類 Payload
質量 297.00 kg
乾燥質量 275.00 kg
総質量 297.00 kg
長さ 0.20 m
直径 2.80 m
スパン 9.00 m
形状 Box + pan
製造者 SPXS
バスタイプ Starlink
フェーズステータス In Orbit
所有者/国 SPXS/US

大規模コンステレーション

Loading constellations...